AKST,Max TemperatureF,Mean TemperatureF,Min TemperatureF,Max Dew PointF,MeanDew PointF,Min DewpointF,Max Humidity, Mean Humidity, Min Humidity, Max Sea Level PressureIn, Mean Sea Level PressureIn, Min Sea Level PressureIn, Max VisibilityMiles, Mean VisibilityMiles, Min VisibilityMiles, Max Wind SpeedMPH, Mean Wind SpeedMPH, Max Gust SpeedMPH,PrecipitationIn, CloudCover, Events, WindDirDegrees
2012-12-1,37,35,33,36,35,33,100,97,89,29.21,29.17,29.11,10,9,4,5,1,,0.36,8,Rain-Snow,337
2012-12-2,37,35,33,36,33,32,100,94,89,29.29,29.12,29.05,10,5,1,14,2,23,1.11,8,Rain-Snow,167
2012-12-3,39,36,33,36,34,32,100,91,79,29.46,29.33,29.21,10,9,2,24,10,31,0.69,8,Rain-Snow,159
2012-12-4,37,35,33,36,34,32,100,95,93,29.47,29.27,29.02,10,8,2,10,4,,0.47,8,Rain-Snow,152
2012-12-5,37,35,33,35,33,32,100,92,79,29.84,29.72,29.49,10,8,2,9,6,18,0.30,7,Rain-Snow,149
2012-12-6,37,35,33,34,32,28,100,92,70,29.84,29.75,29.59,10,6,1,16,7,22,0.38,8,Rain-Snow,150
2012-12-7,34,31,28,34,31,27,100,95,87,30.12,29.87,29.67,10,8,2,6,2,,0.05,7,Snow,181
2012-12-8,34,32,30,32,30,28,96,90,82,30.21,30.10,29.91,10,6,1,18,4,29,0.20,8,Snow,156
2012-12-9,39,36,33,38,35,32,100,95,89,30.12,30.02,29.90,10,7,2,16,9,23,0.34,7,Rain-Snow,162
2012-12-10,44,40,35,43,40,36,100,97,92,30.12,29.79,29.37,10,7,2,21,8,31,0.79,8,Rain,140
2012-12-11,42,40,37,39,38,34,100,92,86,29.82,29.50,29.34,10,10,6,12,8,18,0.06,7,Rain,291
2012-12-12,41,36,33,40,34,31,96,92,83,29.91,29.81,29.59,10,9,4,20,7,29,0.69,6,Rain,163
2012-12-13,42,38,35,41,37,33,100,92,79,29.75,29.62,29.52,10,8,4,16,9,30,0.35,8,Rain,151
2012-12-14,42,38,35,40,36,33,96,92,86,29.75,29.42,29.06,10,9,6,34,14,46,1.43,8,Rain,142
2012-12-15,41,37,33,38,35,32,100,91,86,29.30,29.18,29.03,10,9,5,24,12,33,0.56,7,Rain,148
2012-12-16,34,31,27,34,31,25,100,95,92,29.30,29.27,29.22,10,7,1,13,4,17,0.18,7,Snow,152
2012-12-17,32,28,24,30,27,22,96,92,86,29.65,29.40,29.23,10,8,0,7,1,,0.06,6,Fog-Snow,177
2012-12-18,37,30,23,29,26,22,100,84,62,29.68,29.54,29.20,10,10,10,21,4,31,0.00,7,,136
2012-12-19,37,36,35,30,28,27,82,73,65,29.42,29.21,29.09,10,9,3,23,13,37,0.01,8,Snow,158
2012-12-20,36,33,30,29,26,23,82,73,59,29.72,29.56,29.44,10,10,9,9,2,,0.01,5,Snow,312
2012-12-21,34,30,25,26,20,15,82,65,46,29.78,29.75,29.72,10,10,10,9,3,18,0.00,4,,273
2012-12-22,33,27,21,27,21,16,93,76,56,29.72,29.65,29.60,10,9,2,5,2,,0.00,5,Snow,282
2012-12-23,32,26,19,20,17,14,89,71,56,29.98,29.80,29.67,10,10,10,4,2,,0.00,4,,209
2012-12-24,34,28,23,18,14,13,65,56,46,30.07,29.99,29.88,10,10,10,6,1,,0.00,3,,182
2012-12-25,37,30,24,27,22,18,77,65,48,29.86,29.76,29.70,10,10,10,9,4,21,0.00,5,,173
2012-12-26,30,26,21,24,21,17,92,80,66,29.95,29.87,29.76,10,10,10,5,1,,0.00,2,,151
2012-12-27,35,32,30,36,32,22,100,93,66,29.94,29.83,29.79,10,7,3,12,6,,0.61,8,Rain-Snow,155
2012-12-28,37,36,35,37,36,35,100,100,97,30.14,29.97,29.83,10,8,1,6,4,,0.26,8,Rain,163
2012-12-29,37,36,35,38,36,35,100,98,89,30.22,30.17,30.11,10,8,2,8,2,,0.02,8,Rain,164
2012-12-30,43,40,37,41,36,33,100,87,68,30.11,29.97,29.81,10,10,4,28,12,33,0.17,8,Rain,153
2012-12-31,44,40,37,41,39,35,100,93,76,30.40,30.21,29.81,10,10,10,26,11,38,0.08,6,,154